SCP
0 0 0 0 0 0 0 0 0 0 0 0 0 0 0 0 0 0 0 0 0 0 0 0 0 0 0 0 0 0 0 0 0 0 0 0 0 0 0 0 0 0 0
0 0 0 0 0 0 0 0 0 0 0 0 0 0 0 0 0 0 0 0 0 0 0 0 0 0 0 0 0 0 0 0 0 0 0 0 0 0 0 0 0 0 0
0 0 0 0 0 0 0 0 0 0 0 0 0 0 0 0 0 0 0 0 0 0 0 0 0 0 0 0 0 0 0 0 0 0 0 0 0 0 0 0 0 0 0
0 0 0 0 0 0 0 0 0 0 0 0 0 0 0 0 0 0 0 0 0 0 0 0 0 0 0 0 0 0 0 0 0 0 0 0 0 0 0 0 0 0 0
0 0 0 0 0 0 0 0 0 0 0 0 0 0 0 0 0 0 0 0 0 0 0 0 0 0 0 0 0 0 0 0 0 0 0 0 0 0 0 0 0 0 0
0 0 0 0 0 0 0 0 0 0 0 0 0 0 0 0 0 0 0 0 0 0 0 0 0 0 0 0 0 0 0 0 0 0 0 0 0 0 0 0 0 0 0
0 0 0 0 0 0 0 0 0 0 0 0 0 0 0 0 0 0 0 0 0 0 0 0 0 0 0 0 0 0 0 0 0 0 0 0 0 0 0 0 0 0 0
0 0 0 0 0 0 0 0 0 0 0 0 0 0 0 0 0 0 0 0 0 0 0 0 0 0 0 0 0 0 0 0 0 0 0 0 0 0 0 0 0 0 0
0 0 0 0 0 0 0 0 0 0 0 0 0 0 0 0 0 0 0 0 0 0 0 0 0 0 0 0 0 0 0 0 0 0 0 0 0 0 0 0 0 0 0
0 0 0 0 0 0 0 0 0 0 0 0 0 0 0 0 0 0 0 0 0 0 0 0 0 0 0 0 0 0 0 0 0 0 0 0 0 0 0 0 0 0 0
1 1 0 0 0 0 0 0 0 0 0 0 0 0 0 0 0 0 0 0 0 0 0 0 0 0 0 0 0 0 0 0 0 0 0 0 0 0 0 0 0 0 0
1 1 1 1 1 1 1 0 0 0 0 0 0 0 0 0 0 0 0 0 0 0 0 0 0 0 0 0 0 0 0 0 0 0 0 0 0 0 0 0 0 0 0
1 1 1 1 1 1 1 1 1 0 0 0 0 0 0 0 0 0 0 0 0 0 0 0 0 0 0 0 0 0 0 0 0 0 0 0 0 0 0 0 0 0 0
1 1 1 1 1 1 1 1 1 1 1 0 0 0 0 0 0 0 0 0 0 0 0 0 0 0 0 0 0 0 0 0 0 0 0 0 0 0 0 0 0 0 0
0 1 1 1 1 1 0 1 1 1 1 1 1 1 1 0 0 0 0 1 0 0 0 0 0 0 0 0 0 0 0 0 0 0 0 0 0 0 0 0 0 0 0
1 1 1 1 1 1 1 1 1 1 1 1 1 1 1 1 0 0 1 1 1 1 0 0 0 0 0 0 0 0 0 0 0 0 0 0 0 0 0 0 0 0 0
1 1 1 1 1 1 1 1 1 1 1 1 1 1 1 1 1 1 1 1 1 1 1 0 0 0 0 0 0 0 0 0 0 0 0 0 0 0 0 0 0 0 0
1 1 1 1 1 1 1 1 1 1 1 1 1 1 1 1 1 1 1 1 1 1 1 0 0 0 0 0 0 0 0 0 0 0 0 0 0 0 0 0 0 0 0
1 1 1 1 1 1 1 1 1 1 1 1 1 1 1 1 1 1 1 1 1 1 1 1 0 0 0 0 0 0 0 0 0 0 0 0 0 0 0 0 0 0 0
1 1 1 1 1 1 1 1 1 1 1 1 1 1 1 1 1 1 1 1 1 1 1 1 0 0 0 0 0 0 0 0 0 0 0 0 0 0 0 0 0 0 0
1 1 1 1 1 1 1 1 1 1 1 1 1 1 1 1 1 1 1 1 1 1 1 0 0 0 0 0 0 0 0 0 0 0 0 0 0 0 0 0 0 0 0
2 2 1 1 1 1 1 1 1 1 1 1 1 1 1 1 0 0 0 0 0 0 0 0 0 0 0 0 0 0 0 0 0 0 0 0 0 0 0 0 0 0 0
2 2 2 2 1 1 1 1 1 1 1 1 1 1 1 1 0 0 0 0 0 0 0 0 0 0 0 0 0 0 0 0 0 0 0 0 0 0 0 0 0 0 0
2 2 2 2 2 1 1 0 1 1 1 1 1 1 1 1 1 1 1 1 1 0 0 0 0 0 0 0 0 0 0 0 0 0 0 0 0 0 0 0 0 0 0
3 3 2 2 2 1 1 0 0 1 1 1 1 1 1 1 1 0 1 1 1 1 0 0 0 0 0 0 0 0 0 0 0 0 0 0 0 0 0 0 0 0 0
3 3 2 2 2 2 1 0 0 1 1 1 1 1 1 1 0 0 1 1 1 1 0 0 0 0 0 0 0 0 0 0 0 0 0 0 0 0 0 0 0 0 0
Wind_Speed
3 3 1 1 2 2 2 2 3 3 3 3 3 5 5 6 6 6 6 10 9 7 6 5 5 6 5 5 6 6 6 6 6 6 6 6 6 6 6 6 5 6 7
3 2 2 1 2 3 2 2 4 3 2 2 4 4 4 4 5 6 6 6 8 7 6 5 6 6 5 6 7 7 7 6 6 6 5 5 5 5 5 6 6 5 5
3 2 2 2 2 2 3 2 3 2 2 3 4 4 3 3 4 4 5 4 4 6 6 5 5 5 5 5 6 7 6 6 6 5 5 5 5 5 5 5 5 5 5
3 2 2 2 2 2 2 3 2 2 2 2 2 2 3 3 3 3 4 4 4 4 5 6 5 5 5 4 5 6 6 6 6 5 4 4 4 4 4 4 4 4 4
2 2 2 2 2 2 2 3 3 2 2 2 2 2 2 2 2 3 3 4 4 4 4 5 5 4 5 4 4 4 5 6 5 5 5 4 4 4 3 3 4 4 4
2 1 3 2 2 2 2 3 3 2 2 2 2 3 2 2 2 2 2 3 3 4 4 4 3 3 4 4 3 3 3 4 4 5 4 3 3 4 4 4 4 4 4
2 2 2 2 2 2 2 2 2 2 2 2 2 2 1 2 2 2 2 2 2 3 4 4 3 2 2 3 3 3 3 3 4 4 4 3 3 3 4 4 4 4 4
1 2 2 2 2 2 2 1 1 1 1 2 1 1 2 1 1 2 2 2 1 2 3 4 3 3 2 2 2 3 2 3 3 3 3 2 3 3 3 4 4 4 4
2 2 2 1 1 2 2 2 1 1 1 0 1 1 1 1 2 1 2 2 2 2 2 2 3 2 2 2 2 3 4 3 3 2 2 2 2 2 3 3 3 4 5
2 2 2 1 1 1 1 2 2 1 1 1 1 0 0 1 1 2 1 1 2 2 2 2 2 3 3 3 4 6 5 4 3 3 3 2 2 1 2 3 3 3 4
1 2 2 1 1 0 1 0 0 0 1 1 1 1 1 1 1 2 2 2 1 1 1 1 2 2 3 3 3 6 7 5 4 4 3 3 3 2 1 1 1 1 1
1 1 2 1 1 1 1 1 0 1 0 1 1 1 1 1 1 2 2 2 2 1 2 1 2 3 3 3 5 9 9 7 6 5 5 4 4 4 3 2 1 1 1
2 1 1 1 1 1 1 1 1 1 1 1 2 2 1 1 1 1 2 2 2 1 2 1 2 2 3 4 5 9 8 7 6 6 6 5 5 5 4 3 2 2 2
2 2 1 1 1 1 1 1 1 2 2 2 3 2 1 1 1 1 2 2 2 1 2 2 2 3 3 4 5 7 6 7 7 7 6 6 6 5 5 5 4 3 3
1 2 1 1 1 1 1 1 1 2 1 2 2 2 2 2 1 1 2 2 3 2 2 2 2 3 3 4 5 4 5 7 7 6 6 6 6 6 6 6 6 6 5
0 2 1 1 1 1 1 1 1 2 1 1 1 1 1 1 1 1 1 2 2 2 2 2 2 3 3 4 5 4 6 9 8 7 6 6 7 7 6 6 6 7 7
1 1 1 1 1 1 1 1 2 2 2 2 1 1 1 1 1 1 0 1 1 2 3 3 3 3 3 3 4 4 4 4 4 7 7 7 7 6 6 7 7 7 7
3 2 2 2 2 2 2 2 2 1 2 2 2 1 1 1 1 0 0 1 1 2 4 4 4 3 3 3 4 3 3 4 4 7 7 7 6 6 6 6 6 6 6
3 3 2 2 2 2 2 2 2 2 1 1 1 1 1 1 1 0 1 1 1 2 3 4 4 3 3 3 3 2 3 2 4 6 7 6 6 6 5 5 5 5 6
3 3 3 3 3 2 2 2 2 2 1 1 1 1 1 1 1 1 1 1 2 3 3 4 4 4 3 3 3 2 2 2 2 4 4 6 6 6 5 5 5 5 5
4 3 3 3 3 3 3 2 2 3 2 2 1 2 2 3 3 1 1 2 2 2 3 3 3 3 3 3 3 3 3 2 2 2 3 3 3 2 3 4 4 5 5
3 3 3 3 3 3 1 2 2 2 2 2 2 2 3 3 4 4 4 4 3 3 3 3 3 4 4 3 3 3 3 3 2 2 2 2 4 3 3 2 5 6 6
4 3 3 3 3 2 3 2 2 2 2 2 2 2 2 2 3 3 4 5 3 3 3 2 2 3 4 4 4 3 2 2 2 3 2 2 2 3 2 4 9 8 7
4 3 3 3 3 4 5 4 3 3 2 2 2 2 3 3 2 3 3 3 3 3 3 3 2 2 2 3 3 3 3 2 1 2 3 2 2 2 3 3 8 9 8
3 3 3 3 3 3 5 5 5 3 3 3 3 3 3 3 4 5 4 3 3 3 3 4 4 4 4 4 3 2 2 2 2 2 2 2 1 2 2 3 6 10 9
3 4 4 3 4 3 5 6 6 4 4 3 3 3 3 4 6 5 4 3 3 3 3 4 3 4 5 5 5 3 2 2 2 2 2 2 2 2 2 2 3 5 6
Wind_Direction
73 74 70 56 89 93 100 105 96 81 78 85 92 91 80 88 101 110 118 127 129 127 132 145 153 160 161 167 171 176 175 174 175 179 184 190 195 198 200 200 203 205 204
85 79 82 80 84 94 97 102 109 102 89 85 83 86 82 85 92 108 123 135 137 136 138 148 159 161 163 164 169 172 176 176 176 178 182 188 190 200 206 205 208 208 206
102 98 82 92 95 98 99 89 94 107 111 95 93 101 101 93 99 110 124 135 145 147 143 144 151 155 159 167 172 173 173 175 175 180 188 193 195 200 203 202 203 205 202
95 104 101 99 110 114 115 114 102 103 94 88 92 98 109 111 115 128 128 133 137 145 152 148 141 147 154 158 169 174 175 177 181 186 191 196 195 193 196 202 204 198 189
95 109 104 105 130 121 113 114 108 113 120 118 127 128 117 121 132 131 126 133 136 134 141 155 150 137 157 159 161 172 186 188 188 191 194 197 197 189 194 206 214 209 198
88 96 105 108 112 99 90 90 113 123 128 145 143 123 123 127 127 122 129 124 129 135 136 140 159 161 151 147 153 165 176 187 180 180 186 193 202 204 201 210 216 210 205
83 71 89 95 89 96 110 122 126 144 155 142 118 116 117 128 130 121 129 121 131 135 130 136 148 153 162 160 151 159 176 175 173 174 177 186 202 206 198 193 197 201 208
79 90 102 115 116 119 118 134 149 151 176 156 165 169 156 133 115 143 139 129 120 118 125 137 138 137 134 148 139 153 171 169 168 167 176 182 181 180 186 197 205 207 209
107 70 78 78 112 133 143 165 163 176 203 214 172 185 166 160 153 122 130 119 117 110 107 109 123 129 128 118 131 128 130 125 138 150 146 142 155 178 195 206 213 217 219
116 113 98 83 48 85 129 183 171 211 200 233 193 194 164 131 150 133 119 119 121 105 95 96 98 99 98 95 93 97 114 117 122 125 119 112 104 125 187 214 225 227 226
127 124 121 123 127 130 136 114 83 238 255 263 260 209 181 176 201 162 161 158 117 105 111 97 91 94 91 97 104 95 98 100 99 93 89 86 77 68 90 150 206 214 200
131 120 135 135 142 148 130 134 256 215 256 297 298 284 233 196 178 176 169 168 154 133 111 95 104 106 105 91 94 97 96 96 92 85 76 68 62 57 55 77 93 107 107
123 100 105 116 146 158 166 177 195 232 230 254 265 279 295 277 182 171 157 164 155 148 129 110 110 113 105 97 103 105 99 98 93 86 78 69 60 54 54 65 83 85 92
109 131 138 145 166 212 205 173 217 223 210 231 248 255 269 274 220 193 173 162 161 159 140 129 99 96 100 102 108 107 101 101 98 91 83 76 68 61 57 61 70 78 87
159 140 144 150 169 194 226 187 230 245 210 230 248 238 239 256 240 220 179 170 174 175 164 143 120 104 106 102 117 115 107 103 102 94 87 80 72 66 65 68 71 71 77
102 145 156 172 183 201 224 224 233 229 213 223 217 245 252 264 246 241 206 187 189 171 145 131 121 121 110 124 122 115 112 113 104 99 92 87 81 77 74 76 78 77 80
177 164 185 196 204 217 219 227 235 231 221 229 231 219 212 262 294 286 213 161 147 133 134 125 116 119 114 115 125 127 133 129 116 112 108 99 93 88 83 79 78 79 84
186 190 192 196 212 217 215 223 246 245 227 229 230 219 235 230 202 271 108 133 124 129 140 138 138 139 142 144 139 145 140 137 128 128 123 114 107 99 93 89 88 87 87
192 198 199 198 213 219 217 214 229 248 239 226 212 209 222 212 203 180 141 128 129 132 133 143 145 140 150 154 144 145 135 125 137 135 132 127 123 116 110 106 102 99 96
201 204 205 209 212 219 219 216 213 220 221 209 198 190 192 173 185 183 169 136 128 125 136 144 144 149 151 158 152 160 144 154 149 148 140 141 142 139 134 129 128 121 114
199 198 206 210 215 218 219 203 214 207 202 194 180 163 146 119 106 99 132 132 140 143 150 153 153 147 153 164 179 185 167 166 161 153 149 157 155 154 159 161 153 142 137
195 195 205 211 222 231 186 176 197 212 193 194 183 163 141 129 121 116 110 106 112 153 162 167 164 166 169 173 182 184 167 170 180 175 164 186 170 169 170 155 152 153 157
196 202 208 207 203 206 188 171 186 216 212 201 199 193 193 148 133 132 130 133 128 141 152 165 170 183 173 175 175 186 180 181 187 177 172 205 173 162 162 152 159 167 172
198 205 212 215 212 203 187 186 189 206 216 205 197 186 169 162 173 147 147 145 155 170 180 181 168 164 160 162 176 186 185 170 173 183 162 193 192 175 165 162 176 177 181
206 210 212 212 209 196 191 189 190 205 208 202 197 199 186 171 162 166 166 165 169 161 140 143 142 146 142 151 160 164 183 185 199 191 172 183 197 170 171 171 183 187 189
216 217 212 214 210 202 202 196 194 211 209 200 191 190 188 175 166 173 179 176 187 183 166 160 164 174 177 178 182 186 196 205 213 198 174 176 197 180 191 180 173 185 202